Home   Weather   Muncie   Past weeks
Flag for USA

Past Weather in Muncie, Indiana, USA — Yesterday and Last 2 Weeks

Now
70 °F

Clear.


Feels Like: 77 °F
Forecast: 68 / 50 °F
Wind: 8 mph from South

Location: Delaware County-Johnson Field

Current Time: Apr 22, 2019 at 11:02:09 pm

Latest Report: Apr 22, 2019 at 9:53 pm


Visibility: 10 mi

Pressure: 29.99 "Hg

Humidity: 39%

Dew Point: 44 °F

Location of MuncieLocation

Past Weather in Muncie — Graph

°F

Muncie Temperature Yesterday

Maximum temperature yesterday: 69 °F (at 5:53 pm)
Minimum temperature yesterday: 38 °F (at 5:53 am)
Average temperature yesterday: 52 °F

High & Low Weather Summary for the Past Weeks

 TemperatureHumidityPressure
High81 °F (Apr 11, 3:53 pm)93% (Apr 21, 6:21 am)30.19 "Hg (Apr 21, 6:21 am)
Low36 °F (Apr 14, 11:53 pm)29% (Apr 12, 7:53 pm)29.34 "Hg (Apr 14, 2:53 pm)
Average55 °F65%29.82 "Hg
* Reported Apr 7 9:53 pm — Apr 22 9:53 pm, Muncie. Weather by CustomWeather, © 2019

Note: Actual official high and low records may vary slightly from our data, if they occured in-between our weather recording intervals... More about our weather records

Advertising

Muncie Weather History for the Previous 24 Hours

Scroll right to see more
 ConditionsComfort  
Time TempWeatherWind HumidityBarometerVisibility
9:53 pm
Mon, Apr 22
70 °FClear.8 mph39%29.99 "Hg10 mi
8:53 pm71 °FClear.5 mph41%29.99 "Hg10 mi
7:53 pm73 °FSunny.8 mph37%30.00 "Hg10 mi
6:53 pm75 °FSunny.12 mph32%30.02 "Hg10 mi
5:53 pm76 °FSunny.12 mph32%30.04 "Hg10 mi
4:53 pm75 °FSunny.15 mph31%30.06 "Hg10 mi
3:53 pm74 °FSunny.10 mph35%30.08 "Hg10 mi
2:53 pm74 °FSunny.12 mph33%30.12 "Hg10 mi
1:53 pm76 °FSunny.12 mph32%30.12 "Hg10 mi
12:53 pm73 °FSunny.10 mph36%30.14 "Hg10 mi
11:53 am71 °FSunny.13 mph39%30.15 "Hg10 mi
10:53 am68 °FSunny.9 mph42%30.16 "Hg10 mi
9:53 am63 °FSunny.12 mph52%30.18 "Hg10 mi
8:53 am59 °FSunny.9 mph62%30.19 "Hg10 mi
7:53 am54 °FSunny.6 mph72%30.18 "Hg10 mi
6:53 am52 °FSunny.6 mph75%30.15 "Hg10 mi
5:53 am52 °FClear.6 mph75%30.14 "Hg10 mi
4:53 am53 °FClear.8 mph72%30.13 "Hg10 mi
3:53 am53 °FClear.6 mph69%30.13 "Hg10 mi
2:53 am54 °FClear.5 mph62%30.14 "Hg10 mi
1:53 am55 °FClear.5 mph57%30.14 "Hg10 mi
12:53 am54 °FClear.6 mph62%30.14 "Hg10 mi
11:53 pm
Sun, Apr 21
55 °FClear.6 mph62%30.13 "Hg10 mi
Weather by CustomWeather, © 2019

See weather overview